Location: Klamath Falls
(42.2250°N, 121.7810°W)
Time: 13:39:03
(UTC-07:00)

Tiangong 2 - Visible Passes

Search period start: 22 July 2018 00:00
Search period end: 01 August 2018 00:00
Orbit: 386 x 394 km, 42.8° (Epoch: 22 July)

Date Brightness Start Highest point End Pass type
(mag) Time Alt. Az. Time Alt. Az. Time Alt. Az.
22 Jul 1.6 21:24:27 10° W 21:27:31 46° SSW 21:30:06 13° SE visible
23 Jul 3.0 22:04:07 10° WSW 22:06:23 18° SSW 22:07:11 16° SSW visible
24 Jul 2.5 21:06:01 10° W 21:08:49 28° SSW 21:11:36 10° SE visible
